Simultaneous Nadir Overpasses (SNOs) Predictions

Prediction of SNOs between GOES-15 and TERRA Satellite Orbit:

Table of predicted SNOs for the next 14.0 days since TLE Epoch: 6/23/2018
Index Date Time (GOES-15) GOES-15 Lat,Lon TERRA Lat,Lon Distance(km) Time Diff (sec)
1 06/23/2018 19:26:30 -0.12,-134.96 -0.25,-134.33 71.35 80
2 06/25/2018 19:14:20 -0.13,-135.03 -0.92,-131.38 415.20 80
3 06/26/2018 07:38:24 0.10,-135.04 -0.20,-136.57 173.83 80
4 06/28/2018 07:23:33 0.11,-135.11 0.42,-133.62 169.20 80
5 06/28/2018 19:47:29 -0.08,-135.14 0.66,-138.78 413.63 80
6 06/30/2018 19:35:18 -0.09,-135.20 0.05,-135.82 71.29 80
7 07/02/2018 19:20:28 -0.11,-135.26 -0.62,-132.88 270.51 80
8 07/03/2018 07:44:32 0.08,-135.26 -0.50,-138.07 318.91 80
9 07/05/2018 07:29:41 0.09,-135.31 0.12,-135.11 22.40 80




NCC Satellite Simultaneous Nadir Overpasses (SNOs) Prediction Service
